| time (UTC) | temp C | wind direction | speed KPH | gust KPH | rain 1hr cm | rain 24hr cm | rain mn cm | humidity % | barometer mb |
| 20260502163523 | 16 | 329 | 4.8 | 16.1 | 0.00 | 0.00 | 0.00 | 54 | 1017.9 |
| 20260502162522 | 16 | 325 | 3.2 | 11.3 | 0.00 | 0.00 | 0.00 | 56 | 1017.8 |
| 20260502161542 | 15 | 287 | 0.0 | 4.8 | 0.00 | 0.00 | 0.00 | 52 | 1017.9 |
| 20260502160522 | 14 | 257 | 1.6 | 6.4 | 0.00 | 0.00 | 0.00 | 57 | 1017.9 |
| 20260502151521 | 14 | 74 | 0.0 | 6.4 | 0.00 | 0.00 | 0.00 | 60 | 1017.5 |
| 20260502150522 | 13 | 75 | 1.6 | 8.0 | 0.00 | 0.00 | 0.00 | 60 | 1017.4 |
| 20260502130542 | 10 | 91 | 0.0 | 8.0 | 0.00 | 0.00 | 0.00 | 78 | 1017.3 |
| 20260502123521 | 8 | 329 | 0.0 | 3.2 | 0.00 | 0.00 | 0.00 | 84 | 1017.2 |
| 20260502122536 | 8 | 329 | 0.0 | 3.2 | 0.00 | 0.00 | 0.00 | 85 | 1017.1 |
| 20260502121542 | 7 | 329 | 0.0 | 3.2 | 0.00 | 0.00 | 0.00 | 86 | 1017.1 |
| 20260502120521 | 7 | 329 | 0.0 | 3.2 | 0.00 | 0.00 | 0.00 | 86 | 1017.1 |
| 20260502115521 | 7 | 0.0 | 0.0 | 0.00 | 0.00 | 0.00 | 87 | 1017.1 | |
| 20260502114521 | 7 | 0.0 | 0.0 | 0.00 | 0.00 | 0.00 | 88 | 1017.1 | |
| 20260502113521 | 6 | 0.0 | 0.0 | 0.00 | 0.00 | 0.00 | 89 | 1017.0 | |
| 20260502112536 | 7 | 0.0 | 0.0 | 0.00 | 0.00 | 0.00 | 90 | 1017.1 | |
| 20260502111516 | 6 | 0.0 | 0.0 | 0.00 | 0.00 | 0.00 | 90 | 1017.0 | |
| 20260502110522 | 6 | 0.0 | 0.0 | 0.00 | 0.00 | 0.00 | 91 | 1017.0 | |
| 20260502105522 | 6 | 0.0 | 0.0 | 0.00 | 0.00 | 0.00 | 91 | 1016.9 | |
| 20260502104521 | 6 | 0.0 | 0.0 | 0.00 | 0.00 | 0.00 | 91 | 1016.8 | |
| 20260502103521 | 6 | 0.0 | 0.0 | 0.00 | 0.00 | 0.00 | 91 | 1016.8 | |
| 20260502102522 | 6 | 0.0 | 0.0 | 0.00 | 0.00 | 0.00 | 90 | 1016.8 | |
| 20260502101516 | 6 | 0.0 | 0.0 | 0.00 | 0.00 | 0.00 | 91 | 1016.9 | |
| 20260502100522 | 6 | 0.0 | 0.0 | 0.00 | 0.00 | 0.00 | 90 | 1016.8 | |
| 20260502090516 | 6 | 0.0 | 0.0 | 0.00 | 0.00 | 0.00 | 91 | 1016.7 | |
| 20260502071521 | 6 | 0.0 | 0.0 | 0.00 | 0.00 | 0.00 | 89 | 1016.8 | |
| 20260502070521 | 6 | 0.0 | 0.0 | 0.00 | 0.00 | 0.00 | 89 | 1016.7 | |
| 20260502065517 | 6 | 0.0 | 0.0 | 0.00 | 0.00 | 0.00 | 88 | 1016.8 | |
| 20260502064536 | 6 | 0.0 | 0.0 | 0.00 | 0.00 | 0.00 | 87 | 1016.7 | |
| 20260502063522 | 6 | 0.0 | 0.0 | 0.00 | 0.00 | 0.00 | 85 | 1016.7 | |
| 20260502062522 | 6 | 0.0 | 0.0 | 0.00 | 0.00 | 0.00 | 86 | 1016.7 | |
| 20260502061521 | 6 | 0.0 | 0.0 | 0.00 | 0.00 | 0.00 | 85 | 1016.7 | |
| 20260502060521 | 6 | 0.0 | 0.0 | 0.00 | 0.00 | 0.00 | 83 | 1016.7 | |
| 20260502055522 | 6 | 0.0 | 0.0 | 0.00 | 0.00 | 0.00 | 83 | 1016.8 | |
| 20260502054516 | 6 | 0.0 | 0.0 | 0.00 | 0.00 | 0.00 | 83 | 1016.8 | |
| 20260502053521 | 6 | 0.0 | 0.0 | 0.00 | 0.00 | 0.00 | 82 | 1016.8 | |
| 20260502052522 | 6 | 0.0 | 0.0 | 0.00 | 0.00 | 0.00 | 83 | 1016.9 | |
| 20260502051542 | 6 | 0.0 | 0.0 | 0.00 | 0.00 | 0.00 | 83 | 1016.8 | |
| 20260502050521 | 7 | 0.0 | 0.0 | 0.00 | 0.00 | 0.00 | 82 | 1016.8 | |
| 20260502045540 | 7 | 0.0 | 0.0 | 0.00 | 0.00 | 0.00 | 82 | 1016.8 | |
| 20260502044540 | 7 | 0.0 | 0.0 | 0.00 | 0.00 | 0.00 | 83 | 1016.8 | |
| 20260502043540 | 7 | 0.0 | 0.0 | 0.00 | 0.00 | 0.00 | 83 | 1016.9 | |
| 20260502042520 | 7 | 0.0 | 0.0 | 0.00 | 0.00 | 0.00 | 83 | 1017.0 | |
| 20260502041641 | 7 | 0.0 | 0.0 | 0.00 | 0.00 | 0.00 | 82 | 1017.0 | |
| 20260502040522 | 7 | 0.0 | 0.0 | 0.00 | 0.00 | 0.00 | 82 | 1017.1 | |
| 20260502035535 | 8 | 0.0 | 0.0 | 0.00 | 0.00 | 0.00 | 81 | 1017.1 | |
| 20260502034521 | 8 | 0.0 | 0.0 | 0.00 | 0.00 | 0.00 | 78 | 1017.1 | |
| 20260502033523 | 8 | 0.0 | 0.0 | 0.00 | 0.00 | 0.00 | 80 | 1017.2 | |
| 20260502032522 | 8 | 0.0 | 0.0 | 0.00 | 0.00 | 0.00 | 78 | 1017.2 | |
| 20260502031522 | 8 | 0.0 | 0.0 | 0.00 | 0.00 | 0.00 | 77 | 1017.3 | |
| 20260502030517 | 9 | 0.0 | 0.0 | 0.00 | 0.00 | 0.00 | 75 | 1017.5 | |
| 20260502025522 | 9 | 0.0 | 0.0 | 0.00 | 0.00 | 0.00 | 74 | 1017.5 | |
| 20260502024522 | 10 | 0.0 | 0.0 | 0.00 | 0.00 | 0.00 | 75 | 1017.4 | |
| 20260502023522 | 10 | 0.0 | 0.0 | 0.00 | 0.00 | 0.00 | 75 | 1017.4 | |
| 20260502022522 | 10 | 0.0 | 0.0 | 0.00 | 0.00 | 0.00 | 73 | 1017.3 | |
| 20260502021542 | 10 | 0.0 | 0.0 | 0.00 | 0.00 | 0.00 | 73 | 1017.2 | |
| 20260502020517 | 10 | 0.0 | 0.0 | 0.00 | 0.00 | 0.00 | 72 | 1017.0 | |
| 20260502015520 | 10 | 0.0 | 0.0 | 0.00 | 0.00 | 0.00 | 64 | 1017.0 | |
| 20260502014522 | 10 | 0.0 | 0.0 | 0.00 | 0.00 | 0.00 | 64 | 1016.8 | |
| 20260502013542 | 11 | 0.0 | 0.0 | 0.00 | 0.00 | 0.00 | 61 | 1016.6 | |
| 20260502012522 | 11 | 0.0 | 0.0 | 0.00 | 0.00 | 0.00 | 56 | 1016.3 | |
| 20260502011542 | 11 | 0.0 | 0.0 | 0.00 | 0.00 | 0.00 | 61 | 1016.1 | |
| 20260502010522 | 12 | 0.0 | 0.0 | 0.00 | 0.00 | 0.00 | 53 | 1016.0 | |
| 20260502005517 | 12 | 0.0 | 0.0 | 0.00 | 0.00 | 0.00 | 53 | 1016.0 | |
| 20260502004522 | 12 | 0.0 | 0.0 | 0.00 | 0.00 | 0.00 | 52 | 1016.0 | |
| 20260502003522 | 13 | 0.0 | 0.0 | 0.00 | 0.00 | 0.00 | 52 | 1015.9 | |
| 20260502002522 | 13 | 327 | 0.0 | 3.2 | 0.00 | 0.00 | 0.00 | 51 | 1015.8 |
| 20260502001522 | 14 | 0.0 | 0.0 | 0.00 | 0.00 | 0.00 | 49 | 1015.9 | |
| 20260502000522 | 15 | 0.0 | 3.2 | 0.00 | 0.00 | 0.00 | 48 | 1015.8 | |
| 20260501235522 | 16 | 327 | 0.0 | 4.8 | 0.00 | 0.00 | 0.00 | 41 | 1015.7 |
| 20260501234518 | 16 | 327 | 0.0 | 6.4 | 0.00 | 0.00 | 0.00 | 44 | 1015.6 |
| 20260501233522 | 16 | 334 | 1.6 | 9.7 | 0.00 | 0.00 | 0.00 | 40 | 1015.4 |
| 20260501232522 | 16 | 338 | 3.2 | 12.9 | 0.00 | 0.00 | 0.00 | 41 | 1015.4 |
| 20260501231522 | 16 | 327 | 1.6 | 8.0 | 0.00 | 0.00 | 0.00 | 40 | 1015.3 |
| 20260501230522 | 16 | 336 | 1.6 | 8.0 | 0.00 | 0.00 | 0.00 | 41 | 1015.1 |
| 20260501225522 | 16 | 336 | 3.2 | 11.3 | 0.00 | 0.00 | 0.00 | 41 | 1015.0 |
| 20260501224517 | 16 | 339 | 3.2 | 11.3 | 0.00 | 0.00 | 0.00 | 43 | 1015.1 |
| 20260501223517 | 17 | 300 | 1.6 | 8.0 | 0.00 | 0.00 | 0.00 | 41 | 1015.3 |
| 20260501222522 | 16 | 340 | 3.2 | 8.0 | 0.00 | 0.00 | 0.00 | 40 | 1015.5 |
| 20260501221522 | 16 | 322 | 3.2 | 14.5 | 0.00 | 0.00 | 0.00 | 40 | 1015.6 |
| 20260501220542 | 16 | 331 | 4.8 | 11.3 | 0.00 | 0.00 | 0.00 | 41 | 1015.7 |
| 20260501215520 | 16 | 307 | 1.6 | 6.4 | 0.00 | 0.00 | 0.00 | 41 | 1015.8 |
| 20260501214522 | 16 | 327 | 3.2 | 9.7 | 0.00 | 0.00 | 0.00 | 41 | 1015.9 |
| 20260501213537 | 16 | 341 | 4.8 | 12.9 | 0.00 | 0.00 | 0.00 | 42 | 1015.9 |
| 20260501212522 | 17 | 343 | 4.8 | 14.5 | 0.00 | 0.00 | 0.00 | 39 | 1016.1 |
| 20260501211522 | 17 | 348 | 3.2 | 12.9 | 0.00 | 0.00 | 0.00 | 45 | 1016.2 |
| 20260501210522 | 16 | 331 | 3.2 | 9.7 | 0.00 | 0.00 | 0.00 | 44 | 1016.3 |
| 20260501205522 | 16 | 322 | 6.4 | 11.3 | 0.00 | 0.00 | 0.00 | 42 | 1016.7 |
| 20260501204522 | 15 | 277 | 3.2 | 19.3 | 0.00 | 0.00 | 0.00 | 41 | 1016.7 |
| 20260501203517 | 16 | 310 | 6.4 | 11.3 | 0.00 | 0.00 | 0.00 | 44 | 1016.9 |
| 20260501202517 | 16 | 314 | 4.8 | 11.3 | 0.00 | 0.00 | 0.00 | 44 | 1017.1 |
| 20260501201522 | 16 | 345 | 3.2 | 12.9 | 0.00 | 0.00 | 0.00 | 44 | 1017.2 |
| 20260501200522 | 17 | 331 | 4.8 | 12.9 | 0.00 | 0.00 | 0.00 | 42 | 1017.3 |
| 20260501195542 | 17 | 325 | 1.6 | 9.7 | 0.00 | 0.00 | 0.00 | 46 | 1017.6 |
| 20260501194522 | 17 | 339 | 6.4 | 22.5 | 0.00 | 0.00 | 0.00 | 42 | 1017.8 |
| 20260501193522 | 17 | 311 | 3.2 | 14.5 | 0.00 | 0.00 | 0.00 | 49 | 1017.8 |
| 20260501192517 | 16 | 293 | 4.8 | 14.5 | 0.00 | 0.00 | 0.00 | 45 | 1017.8 |
| 20260501191522 | 17 | 318 | 3.2 | 9.7 | 0.00 | 0.00 | 0.00 | 48 | 1017.8 |
| 20260501190522 | 16 | 341 | 6.4 | 16.1 | 0.00 | 0.00 | 0.00 | 47 | 1017.7 |
| 20260501185522 | 17 | 338 | 3.2 | 12.9 | 0.00 | 0.00 | 0.00 | 48 | 1017.7 |
| 20260501184522 | 16 | 335 | 6.4 | 11.3 | 0.00 | 0.00 | 0.00 | 48 | 1017.7 |
| 20260501183522 | 16 | 323 | 3.2 | 12.9 | 0.00 | 0.00 | 0.00 | 46 | 1017.7 |
| 20260501182542 | 16 | 330 | 4.8 | 14.5 | 0.00 | 0.00 | 0.00 | 48 | 1017.7 |
| 20260501181517 | 16 | 324 | 6.4 | 11.3 | 0.00 | 0.00 | 0.00 | 44 | 1017.8 |
| 20260501180522 | 16 | 333 | 3.2 | 11.3 | 0.00 | 0.00 | 0.00 | 43 | 1017.8 |
| 20260501175522 | 16 | 329 | 3.2 | 17.7 | 0.00 | 0.00 | 0.00 | 48 | 1018.0 |
| 20260501174522 | 16 | 334 | 6.4 | 16.1 | 0.00 | 0.00 | 0.00 | 48 | 1018.1 |
| 20260501173522 | 16 | 327 | 3.2 | 14.5 | 0.00 | 0.00 | 0.00 | 46 | 1018.2 |
| 20260501172522 | 16 | 331 | 1.6 | 9.7 | 0.00 | 0.00 | 0.00 | 43 | 1018.1 |
| 20260501171517 | 16 | 326 | 3.2 | 14.5 | 0.00 | 0.00 | 0.00 | 45 | 1018.1 |
| 20260501170522 | 15 | 330 | 1.6 | 17.7 | 0.00 | 0.00 | 0.00 | 45 | 1018.0 |
| 20260501165522 | 15 | 336 | 8.0 | 16.1 | 0.00 | 0.00 | 0.00 | 44 | 1017.9 |
| 20260501164542 | 15 | 314 | 8.0 | 14.5 | 0.00 | 0.00 | 0.00 | 47 | 1018.0 |